[[{"header":{"parameterUnit":"m.s-1","parameterCategory":2,"la1":30.2991,"la2":30.254,"lo1":-89.0895,"lo2":-89.0444,"dy":0.0017,"dx":0.0017,"nx":28,"ny":28,"refTime":"2024-07-27T21:00:00:Z","depth":"0","parameterNumber":2,"parameterNumberName":"U-component_of_CURRENTS"},"data":[0,0,0,0,0,0,0,0,0,0,0,0,0,0,0,0,0,0,0,0,0,0,0,0,0,0,0,0,0,0,0,0,0,0,0,0,0,0,0,0,0,0,0,0,0,0,0,0,0,0,0,0,0,0,0,0,0,0,0.2408,0.2409,0,0.2481,0.2482,0.2483,0.2527,0.2527,0.2527,0.2527,0.2569,0.257,0.2571,0,0,0,0,0,0,0,0,0,0,0,0,0,0.2487,0.2484,0.2408,0.2409,0.2409,0.2481,0.2482,0.2483,0.2527,0.2527,0.2527,0.2527,0.2569,0.257,0.2571,0,0,0,0,0,0,0,0,0,0,0,0,0,0.2496,0.2483,0.2408,0.2439,0.2443,0.2481,0.2482,0.2484,0.2527,0.2527,0.2527,0.2527,0.2568,0.257,0.2571,0.2577,0,0,0.2576,0.2577,0,0,0,0,0,0,0,0,0.2495,0.2493,0.2434,0.2437,0.2441,0.2494,0.2526,0.2513,0.2527,0.2495,0.2527,0.2527,0.2541,0.2544,0.2559,0.2579,0.2581,0.2576,0.2577,0.2578,0.2578,0,0,0,0,0,0,0,0.2494,0.2491,0.2438,0.2435,0.2439,0.2512,0.2512,0.2525,0.2516,0.2498,0.2501,0.2508,0.2543,0.2558,0.256,0.2581,0.2576,0.2577,0.2578,0.2579,0.2669,0.267,0,0,0,0,0,0,0.2473,0.2489,0.2435,0.244,0.2468,0.251,0.251,0.2478,0.2517,0.2523,0.2508,0.251,0.2555,0.2559,0.2562,0.2586,0.2578,0.2579,0.258,0.2667,0.2669,0.2671,0,0,0,0,0,0,0.2474,0.2466,0.2432,0.2469,0.2469,0.2507,0.2472,0.2479,0.2499,0.2524,0.253,0.252,0.2555,0.256,0.2591,0.2587,0.258,0.2581,0.2666,0.2668,0.267,0.2625,0,0,0,0,0,0,0.2475,0.2465,0.244,0.2465,0.2466,0.2454,0.2472,0.248,0.2502,0.2505,0.2536,0.2541,0.2556,0.2588,0.2592,0.2589,0.2582,0.2664,0.2667,0.2669,0.2624,0.2625,0.2626,0,0,0,0,0,0.2477,0.2451,0.2437,0.2432,0.2427,0.2454,0.2462,0.2492,0.2502,0.251,0.2542,0.254,0.2609,0.2591,0.2595,0.2592,0.2662,0.2666,0.2669,0.2624,0.2625,0.2626,0,0,0,0,0,0,0.2515,0.2454,0.2439,0.2406,0.2423,0.2461,0.2475,0.2492,0.2524,0.2529,0.2553,0.256,0.2587,0.2606,0.2585,0.2633,0.2638,0.2642,0.2602,0.2603,0.2604,0.2641,0.2583,0,0,0,0,0,0.2496,0.2437,0.243,0.2412,0.2411,0.244,0.2456,0.2474,0.2505,0.252,0.254,0.2573,0.2604,0.2615,0.2645,0.2663,0.2716,0.267,0.2671,0.2671,0.2709,0.2784,0.2794,0.2682,0.2682,0.2682,0,0,0.2528,0.2472,0.2456,0.2413,0.2427,0.2444,0.245,0.2474,0.2502,0.2518,0.2557,0.2572,0.2613,0.264,0.2654,0.2652,0.2729,0.2675,0.2674,0.2714,0.2788,0.2799,0.2809,0.2684,0.2684,0.2683,0,0,0.2559,0.2488,0.2459,0.2452,0.2443,0.2454,0.2457,0.2481,0.2499,0.2529,0.2557,0.2583,0.2614,0.2652,0.2674,0.2702,0.2732,0.2698,0.2723,0.2793,0.2803,0.2812,0.2877,0.2893,0.2694,0.2694,0.2694,0,0.2612,0.2547,0.2475,0.2455,0.247,0.2456,0.2487,0.2496,0.2534,0.2556,0.2538,0.2619,0.263,0.2696,0.2703,0.2701,0.2749,0.2703,0.2793,0.2803,0.2814,0.2878,0.2896,0.2692,0.2692,0.2693,0.2693,0,0.2628,0.2586,0.2579,0.2524,0.2528,0.2551,0.2546,0.2554,0.2556,0.2575,0.2622,0.2643,0.2698,0.269,0.2701,0.2779,0.2791,0.2781,0.2782,0.2822,0.2887,0.2907,0.269,0.269,0.2691,0.2691,0,0,0.2755,0.2618,0.2624,0.2604,0.2568,0.2583,0.2598,0.2627,0.2654,0.2657,0.2709,0.2741,0.2743,0.2774,0.2781,0.2833,0.2917,0.2836,0.284,0.2888,0.308,0.2984,0.2996,0.2915,0.2919,0.2922,0.3089,0,0.2819,0.2775,0.2701,0.2721,0.2715,0.2681,0.2705,0.2715,0.2712,0.2742,0.2757,0.2802,0.2776,0.2797,0.2843,0.2905,0.2971,0.2875,0.3049,0.3056,0.2954,0.3016,0.2824,0.2949,0.3108,0.3111,0.3113,0,0.2878,0.283,0.2834,0.2787,0.2791,0.2804,0.2826,0.2838,0.285,0.2852,0.2876,0.2879,0.295,0.2914,0.3056,0.2994,0.3054,0.3094,0.3101,0.3052,0.2996,0.2942,0.2978,0.2877,0.3144,0.3141,0.3139,0,0.2982,0.2937,0.2932,0.2921,0.2869,0.2884,0.288,0.2882,0.289,0.2922,0.2934,0.3,0.3036,0.3121,0.3156,0.3132,0.3304,0.3279,0.3262,0.3256,0.3152,0.313,0.3104,0.3418,0.3418,0.3418,0.3417,0,0.3052,0.3057,0.2975,0.2969,0.2995,0.295,0.2981,0.2977,0.2983,0.2991,0.2997,0.3024,0.3092,0.3157,0.3208,0.3279,0.335,0.3303,0.3304,0.3127,0.3102,0.3057,0.3014,0.3424,0.3423,0.3421,0.342,0,0.3121,0.3074,0.306,0.3023,0.3018,0.303,0.3006,0.3013,0.303,0.3039,0.3054,0.3082,0.3155,0.3207,0.3341,0.3338,0.3313,0.3434,0.3209,0.3179,0.3043,0.3005,0.2959,0.2889,0.3467,0.3466,0.3465,0,0.3124,0.3119,0.3088,0.3072,0.3043,0.3046,0.3035,0.3036,0.3026,0.3059,0.3063,0.3133,0.3147,0.328,0.3291,0.3375,0.3277,0.3247,0.3166,0.3035,0.2995,0.2893,0.2831,0.3019,0.3015,0.3011,0.3008,0,0.3117,0.3115,0.3091,0.3066,0.3049,0.3037,0.3021,0.3027,0.3019,0.3032,0.3036,0.306,0.3138,0.3095,0.317,0.3191,0.304,0.3173,0.3103,0.2709,0.2534,0.2463,0.2914,0.2974,0.2978,0.298,0.2982,0.2983,0.3097,0.3082,0.3042,0.3024,0.3006,0.2985,0.2948,0.2941,0.2924,0.2876,0.2966,0.2935,0.2903,0.2964,0.2956,0.2787,0.2866,0.2703,0.2695,0.2626,0.2459,0.2829,0.2833,0.2835,0.2837,0.2839,0.2841,0,0.3012,0.2998,0.2984,0.2931,0.2888,0.2913,0.2883,0.2818,0.2752,0.2767,0.2751,0.2658,0.2592,0.2542,0.2407,0.2319,0.2237,0.2249,0.2065,0.2054,0.2444,0.2319,0.2126,0.2126,0.2126,0.2126,0.2127,0.2127,0.2948,0.29,0.2899,0.2801,0.2773,0.2666,0.2633,0.2565,0.2541,0.2401,0.231,0.2315,0.2242,0.211,0.1931,0.1895,0.1781,0.1677,0.1762,0.2015,0.2056,0.2095,0.1968,0.1704,0.1704,0.1253,0.1249,0.1246]},{"header":{"parameterUnit":"m.s-1","parameterCategory":2,"la1":30.2991,"la2":30.254,"lo1":-89.0895,"lo2":-89.0444,"dy":0.0017,"dx":0.0017,"nx":28,"ny":28,"refTime":"2024-07-27T21:00:00:Z","depth":"0","parameterNumber":3,"parameterNumberName":"V-component_of_CURRENTS"},"data":[0,0,0,0,0,0,0,0,0,0,0,0,0,0,0,0,0,0,0,0,0,0,0,0,0,0,0,0,0,0,0,0,0,0,0,0,0,0,0,0,0,0,0,0,0,0,0,0,0,0,0,0,0,0,0,0,0,0,-0.033,-0.033,0,-0.0421,-0.0423,-0.0424,-0.05,-0.05,-0.0501,-0.0501,-0.0648,-0.0652,-0.0655,0,0,0,0,0,0,0,0,0,0,0,0,0,-0.0207,-0.0209,-0.033,-0.033,-0.0331,-0.0421,-0.0423,-0.0424,-0.05,-0.05,-0.0501,-0.0501,-0.0647,-0.0651,-0.0655,0,0,0,0,0,0,0,0,0,0,0,0,0,-0.0279,-0.021,-0.0329,-0.0377,-0.0382,-0.0421,-0.0423,-0.0425,-0.05,-0.05,-0.0501,-0.0502,-0.0646,-0.0651,-0.0656,-0.0674,0,0,-0.0672,-0.0674,0,0,0,0,0,0,0,0,-0.0275,-0.0284,-0.0369,-0.0374,-0.0379,-0.0447,-0.0433,-0.051,-0.0499,-0.0459,-0.0501,-0.0502,-0.0583,-0.0593,-0.0614,-0.0681,-0.0687,-0.0672,-0.0675,-0.0678,-0.0679,0,0,0,0,0,0,0,-0.027,-0.028,-0.037,-0.037,-0.0376,-0.0389,-0.0401,-0.0448,-0.052,-0.0462,-0.0467,-0.0471,-0.0587,-0.0608,-0.0618,-0.0689,-0.0672,-0.0677,-0.068,-0.0682,-0.0744,-0.0742,0,0,0,0,0,0,-0.0252,-0.0276,-0.0367,-0.0372,-0.0324,-0.0391,-0.0404,-0.0427,-0.0518,-0.0531,-0.0471,-0.0475,-0.0599,-0.0611,-0.0623,-0.0624,-0.0678,-0.0683,-0.0686,-0.0745,-0.0744,-0.0742,0,0,0,0,0,0,-0.0249,-0.026,-0.0363,-0.0322,-0.0335,-0.0392,-0.0418,-0.0429,-0.0446,-0.0523,-0.0538,-0.0476,-0.06,-0.0616,-0.0654,-0.0632,-0.0685,-0.069,-0.0747,-0.0745,-0.0743,-0.0644,0,0,0,0,0,0,-0.0245,-0.0259,-0.0269,-0.0321,-0.0337,-0.0378,-0.0417,-0.043,-0.0446,-0.0452,-0.0532,-0.0547,-0.0602,-0.0646,-0.0659,-0.064,-0.0694,-0.0749,-0.0746,-0.0743,-0.0649,-0.0638,-0.0629,0,0,0,0,0,-0.0241,-0.0251,-0.0269,-0.028,-0.035,-0.0377,-0.0387,-0.0431,-0.0445,-0.045,-0.0498,-0.0545,-0.0637,-0.0649,-0.0665,-0.0647,-0.075,-0.0747,-0.0744,-0.0653,-0.064,-0.0629,0,0,0,0,0,0,-0.0192,-0.0261,-0.0282,-0.031,-0.0336,-0.0388,-0.0395,-0.0419,-0.0461,-0.0465,-0.0537,-0.0555,-0.0578,-0.0622,-0.0633,-0.0653,-0.0697,-0.0696,-0.0622,-0.0611,-0.0601,-0.0564,-0.0698,0,0,0,0,0,-0.0186,-0.022,-0.0269,-0.0285,-0.0297,-0.0341,-0.0356,-0.0382,-0.0423,-0.0442,-0.0494,-0.0541,-0.0576,-0.0601,-0.0643,-0.0661,-0.0642,-0.0654,-0.0645,-0.0636,-0.0614,-0.055,-0.0532,-0.0731,-0.0731,-0.0731,0,0,-0.0166,-0.0209,-0.0225,-0.0277,-0.0303,-0.0304,-0.0353,-0.0367,-0.0366,-0.0451,-0.0467,-0.0513,-0.0572,-0.0591,-0.0603,-0.0626,-0.0567,-0.0632,-0.0624,-0.0607,-0.0545,-0.0525,-0.0507,-0.0729,-0.0729,-0.0729,0,0,-0.013,-0.0183,-0.0191,-0.021,-0.0243,-0.0272,-0.0268,-0.0313,-0.0334,-0.0355,-0.0404,-0.0425,-0.0498,-0.052,-0.0545,-0.0502,-0.0517,-0.0523,-0.0448,-0.0386,-0.0369,-0.0353,-0.029,-0.0269,-0.0518,-0.0518,-0.0518,0,-0.0097,-0.0122,-0.0189,-0.0189,-0.0189,-0.0248,-0.0226,-0.0258,-0.0305,-0.0304,-0.0347,-0.0397,-0.0456,-0.0448,-0.0442,-0.0478,-0.0445,-0.0492,-0.0371,-0.0355,-0.0341,-0.028,-0.0258,-0.0513,-0.0514,-0.0514,-0.0515,0,-0.0065,-0.0074,-0.0073,-0.01,-0.011,-0.0103,-0.0144,-0.0153,-0.0185,-0.0209,-0.0213,-0.0283,-0.0302,-0.0329,-0.0384,-0.0315,-0.0323,-0.0363,-0.0395,-0.0314,-0.0256,-0.0235,-0.0506,-0.0508,-0.0509,-0.051,0,0,-0.0016,-0.0043,-0.0039,-0.0027,-0.0059,-0.0059,-0.0052,-0.0055,-0.0033,-0.0085,-0.0045,-0.0115,-0.014,-0.0166,-0.0223,-0.019,-0.0074,-0.0232,-0.0231,-0.0158,0.008,0.004,0.0058,-0.0089,-0.0085,-0.0082,0.0086,0,0.0039,0.0072,0.0038,0.0084,0.0098,0.006,0.0076,0.0065,0.0041,0.0059,0.001,0.0012,-0.0082,-0.0084,-0.006,-0.0076,-0.0017,-0.0115,-0.0018,-0.0015,-0.0052,0.0081,0.0054,0.0198,0.0105,0.0109,0.0111,0,0.0077,0.0094,0.0154,0.0177,0.0183,0.0202,0.023,0.0235,0.0236,0.0222,0.0223,0.018,0.0206,0.0118,0.0179,0.0123,0.0125,0.0112,0.0118,0.0062,-0.0017,0.0098,0.0238,0.0122,0.0142,0.014,0.0138,0,0.0137,0.0171,0.0228,0.0235,0.0252,0.028,0.0291,0.0293,0.0306,0.0339,0.0363,0.0373,0.0391,0.0399,0.0343,0.0287,0.042,0.0342,0.032,0.0317,0.0305,0.0293,0.0353,0.0433,0.0433,0.0432,0.0432,0,0.0192,0.0232,0.0263,0.0291,0.0355,0.035,0.0409,0.0415,0.0445,0.0484,0.0458,0.0502,0.0465,0.0499,0.0447,0.0459,0.0518,0.0382,0.0375,0.0336,0.0327,0.0228,0.0161,0.0439,0.0437,0.0436,0.0435,0,0.0231,0.0256,0.0311,0.036,0.0377,0.0419,0.0458,0.0492,0.0528,0.0589,0.061,0.0642,0.0698,0.0657,0.0688,0.0602,0.0556,0.0593,0.0546,0.053,0.0361,0.03,0.04,0.0362,0.0619,0.0619,0.0619,0,0.0252,0.029,0.0354,0.0378,0.0398,0.0453,0.0481,0.0521,0.0556,0.0663,0.0702,0.0789,0.084,0.0877,0.0776,0.0746,0.0621,0.0661,0.0535,0.0396,0.0325,0.0283,0.024,0.0573,0.0573,0.0573,0.0573,0,0.0283,0.0308,0.0347,0.0401,0.044,0.0492,0.0544,0.0591,0.0653,0.0733,0.0856,0.0928,0.0961,0.0935,0.0866,0.0792,0.0572,0.0654,0.0543,0.034,0.0273,0.0216,0.041,0.0571,0.0571,0.0571,0.0572,0.0572,0.029,0.0318,0.0366,0.0414,0.046,0.0528,0.0586,0.0657,0.0758,0.0905,0.0959,0.1112,0.1026,0.094,0.0828,0.0567,0.0586,0.0452,0.0411,0.0399,0.0299,0.0484,0.0595,0.0595,0.0595,0.0596,0.0596,0,0.0293,0.0325,0.0369,0.0436,0.0489,0.0519,0.062,0.0697,0.0837,0.0998,0.1126,0.1194,0.1053,0.0881,0.0559,0.0359,0.0276,0.0239,0.0171,0.0152,0.0357,0.0283,0.029,0.0291,0.0291,0.0291,0.0291,0.0291,0.0294,0.0332,0.036,0.0445,0.0496,0.0591,0.0661,0.0795,0.0935,0.1151,0.1289,0.1381,0.1238,0.0647,0.0224,0.0114,-0.0026,-0.0043,-0.0094,0.0001,0.0016,0.0031,-0.0055,-0.0119,-0.0119,-0.0297,-0.0299,-0.03]}],[{"header":{"parameterUnit":"m.s-1","parameterCategory":2,"la1":30.2991,"la2":30.254,"lo1":-89.0895,"lo2":-89.0444,"dy":0.0017,"dx":0.0017,"nx":28,"ny":28,"refTime":"2024-07-27T21:00:00:Z","depth":"2","parameterNumber":2,"parameterNumberName":"U-component_of_CURRENTS"},"data":[0,0,0,0,0,0,0,0,0,0,0,0,0,0,0,0,0,0,0,0,0,0,0,0,0,0,0,0,0,0,0,0,0,0,0,0,0,0,0,0,0,0,0,0,0,0,0,0,0,0,0,0,0,0,0,0,0,0,0.1813,0.1813,0,0.1766,0.1765,0.1765,0.1713,0.1712,0.1712,0.1711,0.1689,0.1688,0.1688,0,0,0,0,0,0,0,0,0,0,0,0,0,0.1869,0.1868,0.1813,0.1813,0.1812,0.1766,0.1765,0.1765,0.1713,0.1712,0.1712,0.1711,0.1689,0.1688,0.1688,0,0,0,0,0,0,0,0,0,0,0,0,0,0.1834,0.1868,0.1813,0.1783,0.178,0.1766,0.1765,0.1764,0.1713,0.1712,0.1712,0.1711,0.1689,0.1688,0.1688,0.1704,0,0,0.1688,0.1688,0,0,0,0,0,0,0,0,0.1836,0.1831,0.1788,0.1785,0.1781,0.1746,0.1777,0.1746,0.1713,0.1736,0.1711,0.171,0.1712,0.171,0.17,0.1703,0.1702,0.1688,0.1688,0.1688,0.1688,0,0,0,0,0,0,0,0.1838,0.1833,0.1792,0.1787,0.1784,0.1775,0.1769,0.177,0.1728,0.1734,0.1731,0.1729,0.171,0.17,0.1699,0.1702,0.1688,0.1688,0.1688,0.1688,0.1767,0.1769,0,0,0,0,0,0,0.1848,0.1835,0.1794,0.1791,0.1809,0.1775,0.1768,0.1757,0.1728,0.1723,0.173,0.1727,0.17,0.1699,0.1698,0.1747,0.1688,0.1688,0.1687,0.1764,0.1767,0.1769,0,0,0,0,0,0,0.185,0.1845,0.1796,0.1815,0.1808,0.1775,0.1763,0.1756,0.1753,0.1725,0.1719,0.1735,0.17,0.1698,0.1709,0.1745,0.1688,0.1687,0.1762,0.1765,0.1768,0.1825,0,0,0,0,0,0,0.1851,0.1845,0.1853,0.1815,0.1807,0.1796,0.1764,0.1756,0.1754,0.175,0.1727,0.1723,0.1699,0.1709,0.1709,0.1743,0.1687,0.1759,0.1763,0.1767,0.182,0.183,0.1838,0,0,0,0,0,0.1853,0.1855,0.1853,0.1849,0.1814,0.1797,0.1793,0.1765,0.1756,0.1759,0.1746,0.1725,0.1735,0.171,0.1709,0.1745,0.1757,0.1762,0.1767,0.1816,0.1828,0.1838,0,0,0,0,0,0,0.1859,0.1849,0.1846,0.1839,0.1829,0.179,0.1793,0.1779,0.177,0.1771,0.1741,0.1737,0.1762,0.1753,0.1726,0.1784,0.1748,0.1753,0.1786,0.1797,0.1806,0.1831,0.1687,0,0,0,0,0,0.1873,0.1887,0.1863,0.1861,0.1859,0.1834,0.1829,0.1812,0.1795,0.1789,0.1773,0.1772,0.1782,0.1787,0.1786,0.1815,0.1837,0.1844,0.1853,0.186,0.1883,0.1974,0.1993,0.1785,0.1785,0.1785,0,0,0.1868,0.1873,0.1874,0.1868,0.1857,0.186,0.1828,0.1824,0.1832,0.1792,0.1801,0.1797,0.1797,0.1823,0.1835,0.1819,0.1924,0.1866,0.1872,0.1891,0.1981,0.2001,0.2019,0.1789,0.1788,0.1788,0,0,0.1869,0.1877,0.1889,0.1897,0.19,0.1888,0.1893,0.1869,0.1866,0.1876,0.1859,0.1886,0.188,0.1897,0.1905,0.1971,0.1965,0.1967,0.2033,0.212,0.2138,0.2155,0.2175,0.2193,0.1975,0.1975,0.1975,0,0.1861,0.1881,0.1887,0.1907,0.192,0.1906,0.1916,0.1915,0.1898,0.1912,0.1889,0.1928,0.1925,0.1983,0.2004,0.1993,0.2017,0.1985,0.2132,0.2149,0.2165,0.2182,0.2201,0.1978,0.1978,0.1978,0.1977,0,0.187,0.1899,0.1908,0.1938,0.1951,0.1961,0.1966,0.1979,0.1979,0.1979,0.2027,0.203,0.2062,0.2067,0.2053,0.2162,0.2132,0.2129,0.2103,0.2189,0.2201,0.222,0.1983,0.1982,0.1981,0.198,0,0,0.1804,0.1895,0.1898,0.1937,0.1975,0.1979,0.2017,0.2042,0.207,0.2082,0.2126,0.2167,0.218,0.2193,0.2191,0.2264,0.2381,0.2248,0.2251,0.2264,0.2535,0.2316,0.2314,0.2406,0.2411,0.2414,0.2486,0,0.1803,0.1864,0.1906,0.1959,0.1991,0.2024,0.2059,0.2092,0.2112,0.2151,0.2194,0.223,0.2225,0.2245,0.2328,0.235,0.2439,0.2359,0.2455,0.2457,0.225,0.2333,0.2151,0.2183,0.2504,0.2507,0.2509,0,0.1791,0.1847,0.1903,0.2001,0.2012,0.2044,0.2112,0.2142,0.2208,0.2228,0.2295,0.2308,0.24,0.2393,0.2529,0.2474,0.2537,0.2561,0.2565,0.236,0.2274,0.2158,0.2205,0.254,0.2538,0.2535,0.2533,0,0.1755,0.1842,0.1897,0.1928,0.2022,0.2062,0.2106,0.217,0.2192,0.2287,0.2302,0.2412,0.2448,0.2561,0.2594,0.2587,0.2722,0.2717,0.2588,0.2571,0.2434,0.2395,0.2883,0.2882,0.2882,0.2882,0.2882,0,0.1745,0.1793,0.1892,0.1927,0.1989,0.2061,0.2117,0.2175,0.2238,0.2258,0.2348,0.2368,0.2502,0.2562,0.2629,0.2624,0.2763,0.2615,0.2593,0.2439,0.2402,0.273,0.2712,0.2885,0.2884,0.2884,0.2883,0,0.1714,0.1774,0.1843,0.1947,0.1981,0.2026,0.2108,0.2129,0.2209,0.2238,0.2266,0.2354,0.2416,0.2503,0.2649,0.2619,0.2668,0.2657,0.2415,0.236,0.2454,0.2438,0.2522,0.2515,0.251,0.2505,0.2501,0,0.1726,0.1755,0.1844,0.1862,0.1916,0.1987,0.2015,0.2108,0.2117,0.2198,0.2192,0.2272,0.2276,0.235,0.2354,0.2401,0.2555,0.2242,0.2202,0.2457,0.2428,0.242,0.2412,0.205,0.2043,0.2037,0.2032,0,0.1742,0.1753,0.1791,0.1821,0.1855,0.1889,0.1943,0.1939,0.2016,0.2018,0.2011,0.2025,0.2075,0.2,0.2037,0.2052,0.22,0.211,0.2513,0.2123,0.2005,0.1977,0.1987,0.1978,0.1983,0.1987,0.199,0.1992,0.1741,0.1739,0.1752,0.1765,0.1792,0.1776,0.176,0.1781,0.176,0.1743,0.18,0.1761,0.179,0.1712,0.1681,0.1672,0.183,0.1794,0.1818,0.1847,0.1733,0.1607,0.1482,0.1485,0.1487,0.1489,0.149,0,0.1702,0.169,0.1697,0.1672,0.1633,0.1698,0.1684,0.1625,0.1546,0.1556,0.1519,0.1347,0.1308,0.1389,0.1272,0.1236,0.1294,0.1211,0.1306,0.1357,0.1403,0.1273,0.0898,0.0896,0.0895,0.0893,0,0,0.168,0.1626,0.1597,0.1512,0.1506,0.1456,0.1431,0.134,0.1318,0.1191,0.1149,0.1241,0.1301,0.1073,0.1037,0.0958,0.116,0.0917,0.1389,0.155,0.1595,0.1725,0.1577,0,0,0,0,0]},{"header":{"parameterUnit":"m.s-1","parameterCategory":2,"la1":30.2991,"la2":30.254,"lo1":-89.0895,"lo2":-89.0444,"dy":0.0017,"dx":0.0017,"nx":28,"ny":28,"refTime":"2024-07-27T21:00:00:Z","depth":"2","parameterNumber":3,"parameterNumberName":"V-component_of_CURRENTS"},"data":[0,0,0,0,0,0,0,0,0,0,0,0,0,0,0,0,0,0,0,0,0,0,0,0,0,0,0,0,0,0,0,0,0,0,0,0,0,0,0,0,0,0,0,0,0,0,0,0,0,0,0,0,0,0,0,0,0,0,-0.0061,-0.0061,0,-0.0118,-0.012,-0.0121,-0.0229,-0.023,-0.0231,-0.0232,-0.0422,-0.0426,-0.043,0,0,0,0,0,0,0,0,0,0,0,0,0,-0.0057,-0.0057,-0.0061,-0.0061,-0.006,-0.0118,-0.012,-0.0121,-0.0229,-0.023,-0.0231,-0.0233,-0.0421,-0.0426,-0.0431,0,0,0,0,0,0,0,0,0,0,0,0,0,-0.0091,-0.0057,-0.0061,-0.0113,-0.0117,-0.0117,-0.012,-0.0122,-0.0228,-0.023,-0.0232,-0.0233,-0.0419,-0.0425,-0.0431,-0.0435,0,0,-0.045,-0.0452,0,0,0,0,0,0,0,0,-0.0089,-0.0092,-0.0106,-0.0109,-0.0114,-0.0159,-0.0187,-0.0229,-0.0228,-0.0198,-0.0232,-0.0234,-0.0338,-0.0351,-0.0371,-0.0444,-0.0452,-0.045,-0.0454,-0.0456,-0.0458,0,0,0,0,0,0,0,-0.0086,-0.009,-0.0094,-0.0105,-0.011,-0.0137,-0.0145,-0.0196,-0.0269,-0.02,-0.0206,-0.0194,-0.0343,-0.0365,-0.0377,-0.0455,-0.045,-0.0455,-0.0459,-0.0461,-0.0593,-0.0593,0,0,0,0,0,0,-0.0055,-0.0088,-0.0092,-0.0095,-0.0093,-0.0135,-0.0144,-0.0151,-0.0265,-0.028,-0.0193,-0.0199,-0.0354,-0.037,-0.0384,-0.0442,-0.0456,-0.0462,-0.0466,-0.0594,-0.0593,-0.0593,0,0,0,0,0,0,-0.0055,-0.0056,-0.009,-0.0083,-0.0088,-0.0132,-0.014,-0.0151,-0.0189,-0.0256,-0.0276,-0.0219,-0.0356,-0.0376,-0.0445,-0.0449,-0.0465,-0.047,-0.0594,-0.0593,-0.0593,-0.0529,0,0,0,0,0,0,-0.0055,-0.0056,-0.0079,-0.0081,-0.0087,-0.0096,-0.0138,-0.0151,-0.0173,-0.0183,-0.0285,-0.0303,-0.0359,-0.0436,-0.0451,-0.0457,-0.0475,-0.0594,-0.0594,-0.0593,-0.0531,-0.0526,-0.0522,0,0,0,0,0,-0.0055,-0.0079,-0.0081,-0.0082,-0.0109,-0.0094,-0.0101,-0.0145,-0.0172,-0.0187,-0.0259,-0.0301,-0.0445,-0.0441,-0.0459,-0.0467,-0.0594,-0.0594,-0.0593,-0.0533,-0.0527,-0.0523,0,0,0,0,0,0,-0.0083,-0.009,-0.0094,-0.0117,-0.0102,-0.0109,-0.0132,-0.0143,-0.0209,-0.0232,-0.0305,-0.0328,-0.0388,-0.0433,-0.0426,-0.0503,-0.0524,-0.0527,-0.0472,-0.0467,-0.0463,-0.0434,-0.048,0,0,0,0,0,-0.0093,-0.0128,-0.0101,-0.0121,-0.0112,-0.0119,-0.0128,-0.014,-0.0176,-0.0208,-0.0272,-0.0342,-0.0396,-0.0437,-0.0493,-0.0537,-0.0528,-0.0552,-0.0548,-0.0544,-0.0532,-0.0505,-0.0496,-0.0592,-0.0592,-0.0592,0,0,-0.0108,-0.0115,-0.0136,-0.0131,-0.0132,-0.0115,-0.0134,-0.0136,-0.0141,-0.0217,-0.0279,-0.0332,-0.0404,-0.0456,-0.0486,-0.0499,-0.051,-0.0543,-0.0539,-0.0529,-0.0504,-0.0494,-0.0485,-0.0592,-0.0592,-0.0592,0,0,-0.0129,-0.0154,-0.0174,-0.0157,-0.0139,-0.0134,-0.0127,-0.0129,-0.0158,-0.0194,-0.0252,-0.0296,-0.0393,-0.0431,-0.0465,-0.0466,-0.0485,-0.0496,-0.0459,-0.0433,-0.0424,-0.0416,-0.0378,-0.0367,-0.0497,-0.0497,-0.0497,0,-0.0126,-0.0157,-0.0172,-0.016,-0.0143,-0.0135,-0.0113,-0.0132,-0.0163,-0.0176,-0.0211,-0.0311,-0.0373,-0.0412,-0.042,-0.0455,-0.0442,-0.0473,-0.0424,-0.0416,-0.0409,-0.0372,-0.0361,-0.0494,-0.0494,-0.0495,-0.0495,0,-0.015,-0.016,-0.0161,-0.0151,-0.014,-0.0119,-0.0105,-0.0119,-0.0144,-0.0154,-0.0198,-0.0267,-0.0318,-0.0347,-0.0394,-0.0382,-0.0388,-0.0415,-0.0429,-0.0395,-0.0359,-0.0348,-0.049,-0.0491,-0.0492,-0.0492,0,0,-0.0109,-0.0168,-0.0154,-0.0149,-0.0126,-0.0104,-0.0111,-0.0094,-0.009,-0.0135,-0.0133,-0.0219,-0.0237,-0.0274,-0.0325,-0.0316,-0.0257,-0.0347,-0.0347,-0.0294,-0.0186,-0.0224,-0.0216,-0.0277,-0.0275,-0.0274,-0.0175,0,-0.0088,-0.0101,-0.0125,-0.0097,-0.0082,-0.0075,-0.0074,-0.0068,-0.0081,-0.0084,-0.0128,-0.0153,-0.0215,-0.0232,-0.0231,-0.026,-0.0229,-0.028,-0.0241,-0.0239,-0.0264,-0.0205,-0.0213,-0.0129,-0.0165,-0.0163,-0.0162,0,-0.0055,-0.0074,-0.0075,-0.007,-0.0057,-0.0044,-0.0016,-0.0011,-0.0012,-0.0025,-0.0042,-0.0073,-0.0083,-0.0129,-0.0124,-0.0157,-0.0156,-0.0169,-0.0165,-0.0215,-0.0257,-0.0175,-0.0109,-0.0144,-0.0146,-0.0147,-0.0148,0,0.0001,-0.0007,-0.0022,-0.0015,-0.0021,-0.0015,-0.0005,0.0003,0.0017,0.0025,0.0043,0.0017,0.0022,0.0006,-0.0035,-0.0069,-0.0011,-0.0058,-0.0077,-0.0079,-0.0085,-0.0092,-0.001,-0.001,-0.001,-0.0011,-0.0011,0,0.0061,0.0071,-0.0006,0.0004,0.0019,0.0013,0.0045,0.0052,0.0072,0.0114,0.008,0.0129,0.0058,0.0069,0.0022,0.0007,0.0044,-0.0046,-0.0051,-0.0065,-0.007,-0.0095,-0.0107,-0.0007,-0.0008,-0.0009,-0.0009,0,0.0139,0.0082,0.0081,0.0047,0.0041,0.006,0.008,0.0109,0.0123,0.0184,0.0196,0.0228,0.0255,0.0187,0.0181,0.0095,0.0072,0.0067,0.0057,0.0047,-0.0023,-0.0032,0.0062,0.0061,0.0061,0.0061,0.0061,0,0.0158,0.0153,0.0112,0.0108,0.0092,0.0104,0.0123,0.0135,0.0179,0.0264,0.0315,0.036,0.0426,0.0387,0.0247,0.0171,0.015,0.0093,0.0014,0.0003,-0.0012,-0.0021,-0.003,0.0048,0.0048,0.0048,0.0048,0,0.0211,0.0189,0.0177,0.0161,0.0165,0.0193,0.0224,0.0279,0.0323,0.0411,0.0563,0.0627,0.0558,0.0484,0.0315,0.0244,0.0085,0.0083,0.011,0.0007,-0.0009,-0.0025,-0.0032,0.0045,0.0046,0.0046,0.0046,0.0046,0.0245,0.0248,0.0216,0.0218,0.0228,0.0297,0.0371,0.0439,0.0571,0.0707,0.074,0.0817,0.0651,0.0457,0.0313,0.0115,0.0121,0.0032,0.0034,0.0035,-0.0009,-0.0027,0.0018,0.0018,0.0018,0.0018,0.0018,0,0.0275,0.0269,0.0273,0.0292,0.0343,0.0331,0.0447,0.0554,0.0757,0.0819,0.0938,0.0805,0.0694,0.0504,0.0204,0.0034,0.0014,-0.0012,-0.0006,-0.0003,-0.0001,-0.0047,-0.003,-0.003,-0.003,-0.0031,0,0,0.0284,0.03,0.0306,0.0386,0.0415,0.0512,0.0605,0.0775,0.0857,0.0991,0.0989,0.0957,0.0725,0.0502,0.0285,0.0126,0.0099,0.0094,0.0145,0.0181,0.0185,0.0035,-0.0032,0,0,0,0,0]}],[{"header":{"parameterUnit":"m.s-1","parameterCategory":2,"la1":30.2991,"la2":30.254,"lo1":-89.0895,"lo2":-89.0444,"dy":0.0017,"dx":0.0017,"nx":28,"ny":28,"refTime":"2024-07-27T21:00:00:Z","depth":"4","parameterNumber":2,"parameterNumberName":"U-component_of_CURRENTS"},"data":[0,0,0,0,0,0,0,0,0,0,0,0,0,0,0,0,0,0,0,0,0,0,0,0,0,0,0,0,0,0,0,0,0,0,0,0,0,0,0,0,0,0,0,0,0,0,0,0,0,0,0,0,0,0,0,0,0,0,-0.0001,0.0,0,0.0028,0.0028,0.0028,0.0078,0.0079,0.008,0.0081,0.0196,0.0198,0.02,0,0,0,0,0,0,0,0,0,0,0,0,0,-0.0055,-0.0055,-0.0001,0.0,0.0001,0.0028,0.0028,0.0028,0.0077,0.0079,0.0081,0.0082,0.0196,0.0198,0.02,0,0,0,0,0,0,0,0,0,0,0,0,0,-0.0033,-0.0054,-0.0001,0.0031,0.0035,0.0028,0.0028,0.0028,0.0077,0.0079,0.0081,0.0083,0.0195,0.0198,0.0201,0.018,0,0,0.0209,0.021,0,0,0,0,0,0,0,0,-0.0034,-0.0031,0.0026,0.0029,0.0033,0.0054,0.0051,0.0085,0.0077,0.0057,0.0081,0.0084,0.0158,0.0164,0.0159,0.0186,0.0191,0.021,0.0211,0.0212,0.0213,0,0,0,0,0,0,0,-0.0036,-0.0033,0.0007,0.0027,0.0031,0.003,0.0035,0.0057,0.0095,0.0059,0.0064,0.0072,0.016,0.0156,0.0162,0.0192,0.0209,0.0212,0.0214,0.0215,0.0363,0.0365,0,0,0,0,0,0,-0.0032,-0.0034,0.0006,0.0008,0.0007,0.003,0.0035,0.0043,0.0094,0.0103,0.007,0.0074,0.015,0.0159,0.0167,0.0284,0.0212,0.0215,0.0217,0.036,0.0363,0.0366,0,0,0,0,0,0,-0.0033,-0.0029,0.0005,-0.0009,-0.0004,0.0029,0.0037,0.0042,0.0054,0.0102,0.0113,0.0078,0.0152,0.0163,0.0211,0.0284,0.0216,0.0219,0.0358,0.0361,0.0364,0.0431,0,0,0,0,0,0,-0.0035,-0.003,-0.0038,-0.0009,-0.0003,0.002,0.0035,0.0042,0.0057,0.0062,0.0112,0.0123,0.0154,0.0206,0.0213,0.0287,0.0221,0.0355,0.0359,0.0363,0.0426,0.0436,0.0445,0,0,0,0,0,-0.0037,-0.004,-0.0038,-0.0034,-0.001,0.0021,0.0023,0.005,0.0055,0.0065,0.0102,0.0123,0.024,0.0209,0.0217,0.0293,0.0353,0.0358,0.0363,0.0421,0.0434,0.0444,0,0,0,0,0,0,-0.006,-0.0035,-0.0032,-0.0026,0.0,0.0031,0.0048,0.0048,0.0078,0.0097,0.0127,0.0142,0.0222,0.0233,0.0198,0.0349,0.0309,0.0316,0.0351,0.0363,0.0372,0.0377,0.0224,0,0,0,0,0,-0.0074,-0.0067,-0.004,-0.0031,-0.0011,0.0011,0.0021,0.0042,0.0077,0.0091,0.0144,0.0197,0.0243,0.028,0.0327,0.0385,0.0376,0.0447,0.0456,0.0464,0.0475,0.0498,0.051,0.0382,0.0382,0.0382,0,0,-0.0076,-0.0062,-0.0058,-0.0036,-0.0006,0.0015,0.0024,0.0061,0.0093,0.01,0.0185,0.0227,0.0263,0.035,0.0389,0.0372,0.0497,0.047,0.0477,0.0484,0.0505,0.0517,0.0528,0.0385,0.0385,0.0384,0,0,-0.0071,-0.006,-0.0052,-0.0028,0.0013,0.0028,0.0038,0.0094,0.014,0.0205,0.0232,0.0296,0.0387,0.0427,0.0451,0.0528,0.0541,0.0576,0.0636,0.0659,0.0669,0.0678,0.0679,0.0687,0.0587,0.0587,0.0587,0,-0.0079,-0.0064,-0.0043,-0.0021,0.0006,0.0034,0.006,0.01,0.017,0.0222,0.0255,0.0393,0.042,0.0497,0.0549,0.055,0.0567,0.0588,0.067,0.0679,0.0687,0.0685,0.0693,0.0591,0.059,0.059,0.0589,0,-0.0069,-0.005,-0.0026,0.0003,0.0026,0.0067,0.0123,0.0178,0.0244,0.0297,0.0426,0.048,0.0569,0.0598,0.0606,0.0697,0.069,0.0671,0.0635,0.0703,0.0698,0.0705,0.0596,0.0595,0.0593,0.0593,0,0,-0.0087,-0.0036,-0.0026,0.0,0.0052,0.0078,0.0146,0.0221,0.0279,0.0398,0.049,0.0601,0.0666,0.0697,0.073,0.0759,0.0826,0.0766,0.0765,0.0757,0.0886,0.0778,0.0776,0.084,0.0842,0.0843,0.0856,0,-0.0076,-0.0047,-0.002,0.0031,0.0063,0.0119,0.0178,0.0251,0.0346,0.045,0.0544,0.0648,0.0695,0.0757,0.0807,0.0811,0.0853,0.0824,0.083,0.0829,0.0718,0.0783,0.0849,0.0862,0.0863,0.0864,0.0865,0,-0.0069,-0.005,-0.0011,0.0064,0.0087,0.012,0.0224,0.0288,0.0418,0.0504,0.0634,0.0713,0.081,0.0826,0.0909,0.0903,0.0925,0.0918,0.0917,0.08,0.0737,0.0783,0.0878,0.0877,0.0876,0.0876,0.0875,0,-0.009,-0.003,0.0,0.0025,0.0098,0.015,0.0203,0.0318,0.039,0.0547,0.0612,0.0755,0.0824,0.0887,0.0925,0.0938,0.0971,0.0966,0.0887,0.0878,0.0938,0.0928,0.1027,0.1027,0.1027,0.1027,0.1027,0,-0.0081,-0.0051,0.0001,0.0021,0.0084,0.0151,0.0242,0.0323,0.0437,0.0528,0.0659,0.0734,0.0852,0.0897,0.0932,0.0926,0.0985,0.0909,0.0883,0.0965,0.0959,0.0942,0.0932,0.1027,0.1027,0.1027,0.1027,0,-0.009,-0.0065,-0.002,0.0052,0.0079,0.0137,0.0242,0.0307,0.0419,0.0531,0.0585,0.0724,0.0791,0.0852,0.091,0.0906,0.0905,0.0887,0.0958,0.0932,0.0801,0.0795,0.0817,0.0813,0.081,0.0808,0.0806,0,-0.0093,-0.0077,-0.0013,0.0015,0.0059,0.0138,0.0189,0.03,0.037,0.0519,0.0567,0.0663,0.0755,0.0752,0.0806,0.0831,0.0831,0.0823,0.0848,0.0812,0.0785,0.0783,0.0781,0.0801,0.08,0.0799,0.0799,0,-0.0102,-0.008,-0.0047,0.0002,0.0057,0.0112,0.0202,0.0239,0.038,0.0459,0.0568,0.0622,0.0672,0.072,0.0727,0.0748,0.0822,0.0792,0.08,0.0824,0.0793,0.0768,0.077,0.0788,0.079,0.0791,0.0791,0,-0.0107,-0.0089,-0.0058,-0.0002,0.0047,0.0094,0.0142,0.0231,0.0303,0.0478,0.0498,0.0596,0.0679,0.0672,0.0677,0.0681,0.0693,0.0689,0.0703,0.0714,0.067,0.0616,0.0546,0,0,0,0,0,-0.0108,-0.0101,-0.0069,-0.0014,0.0031,0.0063,0.015,0.0201,0.0319,0.0391,0.0457,0.0516,0.0561,0.0584,0.0572,0.0595,0.0665,0.0573,0.0659,0.0732,0.0743,0.0699,0,0,0,0,0,0,-0.0114,-0.0097,-0.0084,-0.0045,-0.0008,0.0041,0.0097,0.0176,0.0229,0.0351,0.0379,0.0464,0.0503,0.0567,0.0557,0.0561,0.0601,0.062,0.0618,0.0725,0.0736,0.0745,0.0703,0,0,0,0,0]},{"header":{"parameterUnit":"m.s-1","parameterCategory":2,"la1":30.2991,"la2":30.254,"lo1":-89.0895,"lo2":-89.0444,"dy":0.0017,"dx":0.0017,"nx":28,"ny":28,"refTime":"2024-07-27T21:00:00:Z","depth":"4","parameterNumber":3,"parameterNumberName":"V-component_of_CURRENTS"},"data":[0,0,0,0,0,0,0,0,0,0,0,0,0,0,0,0,0,0,0,0,0,0,0,0,0,0,0,0,0,0,0,0,0,0,0,0,0,0,0,0,0,0,0,0,0,0,0,0,0,0,0,0,0,0,0,0,0,0,0.0559,0.0559,0,0.0557,0.0557,0.0557,0.0598,0.0599,0.06,0.0602,0.0659,0.0659,0.0659,0,0,0,0,0,0,0,0,0,0,0,0,0,0.055,0.055,0.0559,0.0559,0.0559,0.0557,0.0557,0.0557,0.0597,0.0599,0.0601,0.0602,0.0659,0.0659,0.0659,0,0,0,0,0,0,0,0,0,0,0,0,0,0.0549,0.055,0.0559,0.0581,0.0584,0.0557,0.0557,0.0557,0.0597,0.0599,0.0601,0.0603,0.0659,0.0659,0.066,0.0622,0,0,0.0661,0.0661,0,0,0,0,0,0,0,0,0.0549,0.0549,0.0578,0.058,0.0582,0.0582,0.0575,0.0582,0.0596,0.0589,0.0602,0.0604,0.0639,0.0641,0.0632,0.0624,0.0627,0.0661,0.0661,0.0661,0.0661,0,0,0,0,0,0,0,0.0549,0.0549,0.0555,0.0578,0.0581,0.0576,0.0578,0.0576,0.0602,0.059,0.0593,0.0597,0.0641,0.0631,0.0633,0.0628,0.0661,0.0661,0.0661,0.0662,0.063,0.0629,0,0,0,0,0,0,0.0555,0.0549,0.0556,0.0556,0.0574,0.0575,0.0577,0.0578,0.06,0.0606,0.0595,0.0599,0.0629,0.0633,0.0636,0.0653,0.0661,0.0662,0.0662,0.0631,0.063,0.0629,0,0,0,0,0,0,0.0555,0.0556,0.0556,0.0555,0.0555,0.0573,0.0573,0.0577,0.0588,0.0604,0.0611,0.0606,0.0631,0.0635,0.0647,0.0654,0.0662,0.0662,0.0632,0.0631,0.0629,0.065,0,0,0,0,0,0,0.0555,0.0555,0.0553,0.0555,0.0556,0.0556,0.0572,0.0575,0.0587,0.0592,0.0615,0.0622,0.0633,0.0646,0.0647,0.0655,0.0662,0.0634,0.0632,0.063,0.0651,0.0649,0.0648,0,0,0,0,0,0.0554,0.0551,0.0553,0.0554,0.0554,0.0557,0.0556,0.0573,0.0586,0.059,0.0603,0.0622,0.0634,0.0646,0.0647,0.0655,0.0635,0.0632,0.063,0.0651,0.065,0.0648,0,0,0,0,0,0,0.0542,0.0554,0.0558,0.0557,0.0562,0.0565,0.0588,0.0576,0.0585,0.0606,0.0611,0.0618,0.0631,0.0627,0.064,0.0635,0.0635,0.0633,0.0651,0.0649,0.0648,0.0659,0.0663,0,0,0,0,0,0.0537,0.0557,0.0549,0.0561,0.0573,0.0577,0.058,0.0584,0.0593,0.0601,0.0629,0.0635,0.0613,0.0623,0.0624,0.062,0.0582,0.0622,0.062,0.062,0.0625,0.0542,0.0534,0.0621,0.0621,0.0621,0,0,0.0543,0.0553,0.0565,0.0563,0.0588,0.0586,0.0587,0.0609,0.0613,0.0605,0.0657,0.0642,0.061,0.0613,0.0617,0.0619,0.0574,0.0616,0.0616,0.0623,0.0538,0.053,0.0522,0.0619,0.0619,0.062,0,0,0.0565,0.0578,0.0596,0.0601,0.0623,0.0615,0.0621,0.064,0.0666,0.0678,0.0665,0.0649,0.0664,0.063,0.0606,0.059,0.0569,0.0595,0.0603,0.0522,0.0514,0.0507,0.0449,0.0436,0.0595,0.0595,0.0595,0,0.0564,0.0581,0.0601,0.0613,0.0625,0.0629,0.0634,0.0645,0.0666,0.0678,0.0712,0.0671,0.0663,0.0596,0.0599,0.059,0.0547,0.0617,0.0521,0.0513,0.0505,0.0447,0.0433,0.0596,0.0596,0.0595,0.0595,0,0.0581,0.0601,0.0629,0.0644,0.0647,0.0668,0.0676,0.0701,0.0731,0.0726,0.0722,0.0698,0.0666,0.0651,0.0628,0.0558,0.0546,0.053,0.053,0.0498,0.0439,0.0424,0.0597,0.0596,0.0596,0.0596,0,0,0.0571,0.0624,0.0638,0.0654,0.0668,0.0672,0.0698,0.0698,0.0702,0.0732,0.0724,0.0687,0.0678,0.0648,0.0607,0.0542,0.0456,0.0524,0.0519,0.0476,0.0288,0.0311,0.0297,0.0421,0.0418,0.0416,0.0269,0,0.0584,0.0609,0.0631,0.066,0.0673,0.0691,0.0707,0.0707,0.0723,0.0726,0.069,0.0672,0.0672,0.0651,0.0587,0.0481,0.0417,0.0499,0.0317,0.0312,0.0344,0.028,0.0408,0.0258,0.0254,0.0252,0.025,0,0.059,0.0604,0.0636,0.0671,0.0682,0.0694,0.0712,0.0724,0.071,0.0726,0.0696,0.0673,0.0589,0.0598,0.0422,0.0475,0.0395,0.0319,0.031,0.0318,0.0307,0.0293,0.0222,0.0225,0.0227,0.0229,0.023,0,0.0568,0.0615,0.0645,0.0657,0.0682,0.0714,0.0726,0.0727,0.0739,0.0721,0.0707,0.0627,0.0579,0.0466,0.0357,0.0376,0.016,0.0157,0.01,0.0101,0.0119,0.0128,0.003,0.003,0.003,0.0031,0.0031,0,0.0568,0.0595,0.065,0.0659,0.0694,0.0718,0.0743,0.0752,0.0742,0.0729,0.0709,0.0657,0.0543,0.0426,0.0329,0.0174,0.0136,0.009,0.0056,0.0131,0.0143,0.0108,0.0119,0.0025,0.0027,0.0028,0.0029,0,0.0563,0.0595,0.0628,0.0671,0.0691,0.0724,0.0762,0.0764,0.0764,0.0738,0.0733,0.0651,0.0509,0.0391,0.0188,0.0134,-0.0015,-0.0057,0.0042,0.0017,-0.0012,0.0002,-0.0151,-0.0152,-0.0152,-0.0153,-0.0153,0,0.0559,0.0581,0.0639,0.0663,0.07,0.0745,0.0765,0.0782,0.078,0.0725,0.07,0.0579,0.0517,0.0246,0.0131,-0.0057,-0.0067,-0.013,-0.0072,-0.0017,-0.0036,-0.0021,-0.0007,-0.0154,-0.0154,-0.0154,-0.0154,0,0.0541,0.0585,0.061,0.0659,0.0703,0.0739,0.0771,0.076,0.0765,0.0755,0.0658,0.0551,0.039,0.0229,0.0098,-0.0035,-0.0083,-0.0136,-0.0135,-0.0081,-0.0022,-0.0037,-0.0022,-0.0156,-0.0156,-0.0156,-0.0156,0,0.0535,0.0563,0.0603,0.0656,0.0698,0.0723,0.0741,0.073,0.0724,0.0679,0.0634,0.0493,0.0414,0.0235,0.0099,-0.0009,-0.0031,-0.0047,-0.0052,-0.0051,0.0043,0.0136,0.0005,0,0,0,0,0,0.0523,0.055,0.0584,0.063,0.0672,0.0702,0.0734,0.0746,0.074,0.0677,0.0663,0.0525,0.0336,0.024,0.013,0.0088,-0.005,-0.0041,-0.0071,-0.0166,-0.0164,-0.0066,0,0,0,0,0,0,0.0511,0.0542,0.057,0.0598,0.0627,0.0667,0.0693,0.0695,0.066,0.0643,0.0534,0.0507,0.0311,0.0392,0.0126,0.0093,0.0063,-0.0126,-0.0128,-0.0167,-0.0165,-0.0164,-0.0062,0,0,0,0,0]}]]